Location: Perryvale
(54.4667°N, 113.3833°W)
Time: 20:43:47
(UTC+00:00)

Vanguard 1 Rocket - Pass Details

Date: 23 May 2024
Orbit: 649 x 4220 km, 34.3° (Epoch: 19 June)

Event Time Altitude Azimuth Distance (km) Brightness Sun altitude
Rises 14:57:24 0° 205° (SSW) 8,369 12.1 29.3°
Reaches altitude 10° 15:05:49 10° 192° (SSW) 7,021 11.9 30.5°
Maximum altitude 15:19:34 21° 154° (SSE) 5,146 11.9 32.5°
Drops below altitude 10° 15:29:33 10° 113° (ESE) 4,985 12.5 33.9°
Sets 15:33:57 0° 98° (E) 5,449 12.4 34.6°
